Weather History for Gage, OK

Change the Weather History Date:

Saturday, January 19, 2013

  Actual Average Record
Temperature  
Mean Temperature 45 °F -  
Max Temperature 64 °F 45 °F 75 °F (1951)
Min Temperature 26 °F 21 °F -14 °F (1984)
Degree Days  
Heating Degree Days 20    
Moisture  
Dew Point 24 °F    
Average Humidity 56    
Maximum Humidity 89    
Minimum Humidity 18    
Precipitation  
Precipitation 0.00 in - - ()
Sea Level Pressure  
Sea Level Pressure 30.15 in    
Wind  
Wind Speed 6 mph (WNW)    
Max Wind Speed 12 mph    
Max Gust Speed 20 mph    
Visibility 10 miles    
Events      
Averages and records for this station are not official NWS values.
T = Trace of Precipitation, MM = Missing Value Source: NWS Daily Summary

Daily Weather History Graph

Daily Weather History Graph

Search for Another Location

Airport:

Trip Planner

Search our weather history database for the weather conditions in past years. The results will help you decide how hot, cold, wet, or windy it might be!

Date:

Astronomy

Jan. 19, 2013 Rise Set
Actual Time 7:48 AM CST 5:52 PM CST
Civil Twilight 7:20 AM CST 6:19 PM CST
Nautical Twilight 6:48 AM CST 6:51 PM CST
Astronomical Twilight 6:18 AM CST 7:22 PM CST
Moon 12:17 PM CST (1/19) 1:26 AM CST (1/19)
Length of Visible Light 10h 59m
Length of Day
10h 04m
First Quarter, 57% of the Moon is Illuminated
Jan 19
First Quarter
Jan 26
Full
Feb 3
Last Quarter
Feb 10
New
Feb 17
First Quarter

Hourly Weather History & Observations

Time (CST) Temp. Windchill Dew Point Humidity Pressure Visibility Wind Dir Wind Speed Gust Speed Precip Events Conditions
12:53 AM 37.9 °F 35.5 °F 28.9 °F 70% 30.07 in 10.0 mi SW 3.5 mph - N/A   Clear
1:53 AM 34.0 °F 28.8 °F 28.0 °F 79% 30.06 in 10.0 mi SSW 5.8 mph - N/A   Clear
2:53 AM 35.1 °F 29.3 °F 28.0 °F 76% 30.05 in 10.0 mi SW 6.9 mph - N/A   Clear
3:53 AM 30.0 °F 22.4 °F 26.1 °F 85% 30.06 in 10.0 mi West 8.1 mph - N/A   Clear
4:53 AM 30.9 °F 25.2 °F 26.1 °F 82% 30.05 in 10.0 mi SW 5.8 mph - N/A   Clear
5:53 AM 27.0 °F 20.5 °F 24.1 °F 89% 30.07 in 10.0 mi SW 5.8 mph - N/A   Clear
6:53 AM 27.0 °F 18.7 °F 24.1 °F 89% 30.09 in 10.0 mi WSW 8.1 mph - N/A   Clear
7:53 AM 26.1 °F 20.5 °F 23.0 °F 88% 30.10 in 10.0 mi WSW 4.6 mph - N/A   Clear
8:53 AM 30.9 °F 23.5 °F 27.0 °F 85% 30.13 in 10.0 mi WSW 8.1 mph - N/A   Clear
9:53 AM 39.0 °F 35.7 °F 27.0 °F 62% 30.16 in 10.0 mi West 4.6 mph - N/A   Clear
10:53 AM 51.1 °F - 23.0 °F 33% 30.17 in 10.0 mi North 8.1 mph - N/A   Clear
11:53 AM 57.0 °F - 19.0 °F 23% 30.15 in 10.0 mi NNE 6.9 mph - N/A   Clear
12:53 PM 60.1 °F - 19.9 °F 21% 30.13 in 10.0 mi NNE 10.4 mph - N/A   Clear
1:53 PM 62.1 °F - 19.9 °F 20% 30.12 in 10.0 mi North 9.2 mph - N/A   Clear
2:53 PM 64.0 °F - 21.0 °F 19% 30.12 in 10.0 mi NNW 9.2 mph - N/A   Clear
3:53 PM 64.0 °F - 19.9 °F 18% 30.14 in 10.0 mi North 11.5 mph 19.6 mph N/A   Clear
4:53 PM 62.1 °F - 19.9 °F 20% 30.16 in 10.0 mi NNE 11.5 mph - N/A   Clear
5:53 PM 52.0 °F - 21.9 °F 31% 30.19 in 10.0 mi NE 5.8 mph - N/A   Clear
6:53 PM 46.9 °F - 21.9 °F 37% 30.22 in 10.0 mi NNE 4.6 mph - N/A   Clear
7:53 PM 39.9 °F - 24.1 °F 53% 30.26 in 10.0 mi Calm Calm - N/A   Clear
8:53 PM 35.1 °F - 25.0 °F 67% 30.27 in 10.0 mi Calm Calm - N/A   Clear
9:53 PM 35.1 °F 28.6 °F 24.1 °F 64% 30.27 in 10.0 mi WSW 8.1 mph - N/A   Clear
10:53 PM 33.8 °F 29.6 °F 23.0 °F 65% 30.24 in 10.0 mi West 4.6 mph - N/A   Clear
11:53 PM 30.0 °F 24.1 °F 23.0 °F 75% 30.26 in 10.0 mi SW 5.8 mph - N/A   Clear